Location: Sihaung
(22.8641°N, 94.0549°E)
Time: 03:01:25
(UTC+00:00)

SeaSat 1 - Pass Details

Date: 03 March 2021
Orbit: 744 x 747 km, 108.0° (Epoch: 12 April)

Event Time Altitude Azimuth Distance (km) Brightness Sun altitude
Rises 22:26:19 0° 132° (SE) 3,170 6.4 -23.0°
Reaches altitude 10° 22:28:50 10° 121° (ESE) 2,249 5.7 -22.5°
Maximum altitude 22:33:00 29° 62° (ENE) 1,352 4.4 -21.5°
Drops below altitude 10° 22:37:10 10° 4° (N) 2,256 5.0 -20.5°
Sets 22:39:41 0° 353° (N) 3,182 5.7 -20.0°
